[ show orbit diagram ]
Orbital Elements at Epoch 2459000.5 (2020-May-31.0) TDB
Reference: JPL 42 (heliocentric ecliptic J2000)
Element | Value | Uncertainty (1-sigma) | Units |
e | .09023450166857344 | 2.4504e-08 | |
a | 2.928688737815043 | 1.0853e-08 | au |
q | 2.664419969015939 | 7.1441e-08 | au |
i | 7.461722772300126 | 3.4073e-06 | deg |
node | 196.6662222569544 | 2.1838e-05 | deg |
peri | 86.72257292502181 | 3.0859e-05 | deg |
M | 39.38983160533248 | 2.0391e-05 | deg |
tp | 2458800.195882894636 (2019-Nov-12.69588289) | 0.00010371 | TDB |
period | 1830.662361810381 5.01 | 1.0176e-05 2.786e-08 | d yr |
n | .1966501346780235 | 1.0931e-09 | deg/d |
Q | 3.192957506614146 | 1.1833e-08 | au |
|
| | Orbit Determination Parameters
Additional Information
|
[ show covariance matrix ]
Physical Parameter Table
Parameter |
Symbol |
Value |
Units |
Sigma |
Reference |
Notes |
absolute magnitude |
H |
12.3 |
|
n/a |
MPO435727 |
|
diameter |
diameter |
20.810 |
km |
0.170 |
urn:nasa:pds:neowise_diameters_albedos::2.0[mainbelt] (http://adsabs.harvard.edu/abs/2014ApJ...791..121M) |
|
rotation period |
rot_per |
8.7759 |
h |
n/a |
LCDB (Rev. 2020-October); Warner et al., 2009 |
sidereal period (not synodic); Result based on less than full coverage, so that the period may be wrong by 30 percent or so. Published Reference List: [Hanus, J.; Durech, J.; Broz, M.; Marciniak, A.; et al. (2013) Astron. Astrophys. 551, A67.] |
geometric albedo |
albedo |
0.054 |
|
0.007 |
urn:nasa:pds:neowise_diameters_albedos::2.0[mainbelt] (http://adsabs.harvard.edu/abs/2014ApJ...791..121M) |
|
|
3097 Tacitus (2011 P-L) Discovered 1960-Sep-24 by PLS at Palomar |
These planets have all been discovered as a result of the Palomar survey of faint minor planets and subsequently identified with planets observed at other oppositions. In Sept. and Oct. 1960, T. Gehrels exposed 130 plates with the 122 cm Schmidt camera at Palomar. In the following years C. J. van Houten and I. van Houten-Groeneveld measured these plates astrometrically and photometrically at Leiden. P. Herget, Cincinnati, computed the orbits of the planets found on the NORC computer, Dahlgren, Virginia, USA. |
Note: "planet" implies "minor planet" |
Reference: DISCOVERY.DB | Last Updated: 2003-08-29 |
|
[ show close-approach data ]
Alternate Designations
2011 P-L = 1965 SX = 1975 TL = 1979 MH9 = 1980 RW2 = 1980 TR6 |
|
|
|